Helsinki, Finland

8:13 AM EEST on April 28, 2017 (GMT +0300)
Vantaa

Weather History for EFHK - February, 2013

Change the Weather History Date:

Friday, February 1, 2013

  Actual Average Record
Temperature  
Mean Temperature 30 °F -  
Max Temperature 33 °F 25 °F 35 °F (1999)
Min Temperature 27 °F 14 °F -9 °F (2003)
Degree Days  
Heating Degree Days 35    
Moisture  
Dew Point 26 °F    
Average Humidity 88    
Maximum Humidity 100    
Minimum Humidity 80    
Precipitation  
Precipitation 0.00 in 0.04 in - ()
Sea Level Pressure  
Sea Level Pressure 29.18 in    
Wind  
Wind Speed 7 mph ()    
Max Wind Speed 16 mph    
Max Gust Speed -    
Visibility 5.4 miles    
Events Rain , Snow    
Averages and records for this station are not official NWS values.
T = Trace of Precipitation, MM = Missing Value Source: Averaged Metar Reports

Daily Weather History Graph

Daily Weather History Graph

Search for Another Location

Airport or City:

Trip Planner

Search our weather history database for the weather conditions in past years. The results will help you decide how hot, cold, wet, or windy it might be!

Date:

Astronomy

Feb. 01, 2013 Rise Set
Actual Time 8:35 AM EET 4:32 PM EET
Civil Twilight 7:47 AM EET 5:20 PM EET
Nautical Twilight 6:56 AM EET 6:12 PM EET
Astronomical Twilight 6:07 AM EET 7:01 PM EET
Moon No Moon Rise 9:18 AM EET (2/1)
Length of Visible Light 9h 33m
Length of Day
7h 57m
Waning Gibbous, 73% of the Moon is Illuminated
Feb 1
Waning Gibbous
Feb 3
Last Quarter
Feb 10
New
Feb 17
First Quarter
Feb 25
Full

Hourly Weather History & Observations

Time (EET) Temp. Windchill Dew Point Humidity Pressure Visibility Wind Dir Wind Speed Gust Speed Precip Events Conditions
12:50 AM 33.8 °F 28.6 °F 32.0 °F 93% 29.00 in 0.9 mi South 5.8 mph - N/A   Light Drizzle
1:20 AM 33.8 °F 29.6 °F 33.8 °F 100% 29.00 in 0.9 mi South 4.6 mph - N/A   Light Drizzle
1:50 AM 33.8 °F 29.6 °F 33.8 °F 100% 29.00 in 0.7 mi SSW 4.6 mph - N/A   Light Drizzle
2:00 AM 33 °F - 33 °F 97% 29.04 in 1 mi SW 4.5 mph - - Rain Light Drizzle
2:20 AM 33.8 °F 30.8 °F 32.0 °F 93% 29.00 in 1.2 mi SSW 3.5 mph - N/A Rain , Snow Light Rain
2:50 AM 32.0 °F 28.7 °F 32.0 °F 100% 29.03 in 1.9 mi West 3.5 mph - N/A Snow Light Snow
3:20 AM 32.0 °F 26.4 °F 32.0 °F 100% 29.03 in 1.9 mi West 5.8 mph - N/A Snow Light Snow
3:50 AM 32.0 °F 24.8 °F 32.0 °F 100% 29.03 in 1.9 mi WNW 8.1 mph - N/A Snow Light Snow
4:20 AM 32.0 °F 24.8 °F 30.2 °F 93% 29.03 in 6.2 mi WNW 8.1 mph - N/A Snow Light Snow
4:50 AM 32.0 °F 23.6 °F 30.2 °F 93% 29.06 in 6.2 mi WNW 10.4 mph - N/A   Mostly Cloudy
5:20 AM 30.2 °F 21.9 °F 28.4 °F 93% 29.06 in 6.2 mi WNW 9.2 mph - N/A   Mostly Cloudy
5:50 AM 28.4 °F 18.5 °F 26.6 °F 93% 29.09 in 6.2 mi WNW 11.5 mph - N/A   Scattered Clouds
6:20 AM 28.4 °F 19.1 °F 26.6 °F 93% 29.09 in 6.2 mi WNW 10.4 mph - N/A   Partly Cloudy
6:50 AM 28.4 °F 19.1 °F 24.8 °F 86% 29.09 in 6.2 mi WNW 10.4 mph - N/A   Mostly Cloudy
7:20 AM 28.4 °F 17.5 °F 24.8 °F 86% 29.12 in 6.2 mi WNW 13.8 mph - N/A   Mostly Cloudy
7:50 AM 28.4 °F 18.0 °F 24.8 °F 86% 29.12 in 6.2 mi WNW 12.7 mph - N/A   Mostly Cloudy
8:00 AM 28 °F - 26 °F 87% 29.15 in 25 mi NW 13.4 mph - -   Partly Cloudy
8:20 AM 28.4 °F 19.1 °F 24.8 °F 86% 29.12 in 6.2 mi WNW 10.4 mph - N/A   Mostly Cloudy
8:50 AM 28.4 °F 20.4 °F 24.8 °F 86% 29.15 in 6.2 mi WNW 8.1 mph - N/A   Mostly Cloudy
9:20 AM 28.4 °F 20.4 °F 24.8 °F 86% 29.15 in 6.2 mi WNW 8.1 mph - N/A   Mostly Cloudy
9:50 AM 28.4 °F 19.1 °F 24.8 °F 86% 29.15 in 6.2 mi WNW 10.4 mph - N/A   Mostly Cloudy
10:20 AM 28.4 °F 20.4 °F 26.6 °F 93% 29.15 in 6.2 mi WNW 8.1 mph - N/A   Mostly Cloudy
10:50 AM 28.4 °F 21.2 °F 24.8 °F 86% 29.18 in 6.2 mi WNW 6.9 mph - N/A   Mostly Cloudy
11:20 AM 28.4 °F 18.0 °F 24.8 °F 86% 29.18 in 6.2 mi West 12.7 mph - N/A   Mostly Cloudy
11:50 AM 30.2 °F 21.9 °F 26.6 °F 86% 29.18 in 6.2 mi West 9.2 mph - N/A   Mostly Cloudy
12:20 PM 30.2 °F 20.8 °F 24.8 °F 80% 29.21 in 6.2 mi West 11.5 mph - N/A   Mostly Cloudy
12:50 PM 28.4 °F 19.7 °F 24.8 °F 86% 29.21 in 6.2 mi West 9.2 mph - N/A   Mostly Cloudy
1:20 PM 28.4 °F 18.5 °F 24.8 °F 86% 29.24 in 6.2 mi West 11.5 mph - N/A   Mostly Cloudy
1:50 PM 28.4 °F 19.1 °F 24.8 °F 86% 29.24 in 6.2 mi West 10.4 mph - N/A   Mostly Cloudy
2:00 PM 29 °F - 25 °F 80% 29.26 in 31 mi WNW 15.7 mph - -  
2:20 PM 30.2 °F 20.8 °F 24.8 °F 80% 29.24 in 6.2 mi West 11.5 mph - N/A   Mostly Cloudy
2:50 PM 30.2 °F 24.3 °F 24.8 °F 80% 29.24 in 6.2 mi West 5.8 mph - N/A   Mostly Cloudy
3:20 PM 28.4 °F 21.2 °F 24.8 °F 86% 29.24 in 6.2 mi West 6.9 mph - N/A   Mostly Cloudy
3:50 PM 28.4 °F 20.4 °F 24.8 °F 86% 29.27 in 6.2 mi West 8.1 mph - N/A   Mostly Cloudy
4:20 PM 28.4 °F 22.2 °F 24.8 °F 86% 29.27 in 6.2 mi WSW 5.8 mph - N/A   Mostly Cloudy
4:50 PM 28.4 °F 23.3 °F 24.8 °F 86% 29.27 in 6.2 mi WSW 4.6 mph - N/A   Mostly Cloudy
5:20 PM 28.4 °F 21.2 °F 24.8 °F 86% 29.27 in 6.2 mi West 6.9 mph - N/A   Mostly Cloudy
5:50 PM 28.4 °F 22.2 °F 24.8 °F 86% 29.27 in 6.2 mi WSW 5.8 mph - N/A   Mostly Cloudy
6:20 PM 28.4 °F 22.2 °F 24.8 °F 86% 29.27 in 6.2 mi West 5.8 mph - N/A   Mostly Cloudy
6:50 PM 28.4 °F 23.3 °F 24.8 °F 86% 29.27 in 6.2 mi SW 4.6 mph - N/A   Mostly Cloudy
7:20 PM 28.4 °F 21.2 °F 24.8 °F 86% 29.27 in 6.2 mi SSW 6.9 mph - N/A   Mostly Cloudy
7:50 PM 28.4 °F 21.2 °F 24.8 °F 86% 29.27 in 6.2 mi SSW 6.9 mph - N/A   Mostly Cloudy
8:00 PM 29 °F - 26 °F 82% 29.31 in 25 mi SW 8.9 mph - -  
8:20 PM 28.4 °F 22.2 °F 24.8 °F 86% 29.27 in 6.2 mi SW 5.8 mph - N/A   Mostly Cloudy
8:50 PM 28.4 °F 22.2 °F 24.8 °F 86% 29.27 in 6.2 mi SSW 5.8 mph - N/A   Mostly Cloudy
9:20 PM 28.4 °F 21.2 °F 24.8 °F 86% 29.30 in 6.2 mi SSW 6.9 mph - N/A   Mostly Cloudy
9:50 PM 28.4 °F 22.2 °F 24.8 °F 86% 29.30 in 6.2 mi SW 5.8 mph - N/A   Mostly Cloudy
10:20 PM 28.4 °F 21.2 °F 24.8 °F 86% 29.30 in 6.2 mi SW 6.9 mph - N/A   Mostly Cloudy
10:50 PM 28.4 °F 23.3 °F 23.0 °F 80% 29.30 in 6.2 mi WSW 4.6 mph - N/A   Mostly Cloudy
11:20 PM 28.4 °F 22.2 °F 23.0 °F 80% 29.30 in 6.2 mi SW 5.8 mph - N/A   Mostly Cloudy
11:50 PM 28.4 °F 23.3 °F 24.8 °F 86% 29.30 in 6.2 mi SW 4.6 mph - N/A   Mostly Cloudy